Location: WWIN Observatory
(34.8953°N, 91.9583°W)
Time: 08:14:41
(UTC-05:00)

Daily predictions for brighter satellites

Satellite Brightness Start Highest point End
(mag) Time Altitude Azimuth Time Altitude Azimuth Time Altitude Azimuth
Delta 2 Rocket 4.1 20:02:36 10° W 20:08:23 84° N 20:13:41 10° E
Cosmos 1544 Rocket 3.8 20:06:26 10° SSE 20:10:36 46° E 20:14:49 10° NNE
Cosmos 1536 2.8 20:07:01 10° S 20:10:59 89° W 20:15:00 10° N
Cosmos 1346 Rocket 4.0 20:08:35 10° NNE 20:11:46 23° ENE 20:14:57 10° SE
Tiangong 1 3.1 20:09:10 10° WNW 20:11:46 24° NNW 20:14:23 10° NE
USA 186 3.3 20:10:46 10° ESE 20:12:59 18° ENE 20:15:07 10° NNE
OTV 4 1.3 20:10:37 10° WNW 20:13:28 42° N 20:16:20 10° ENE
Cosmos 2227 Rocket 3.4 20:08:55 10° N 20:13:32 25° ENE 20:18:07 10° ESE
FENGYUN 3A 4.1 20:08:36 10° SE 20:13:33 41° ENE 20:18:33 10° N
Cosmos 2208 Rocket 4.2 20:10:35 10° S 20:15:39 50° ESE 20:20:50 10° NNE
Meteor 1-5 Rocket 4.2 20:14:21 10° S 20:19:30 55° E 20:24:47 10° NNE
NOSS 3-4 (A) 4.3 20:14:17 10° NNW 20:21:02 45° NE 20:28:01 10° SE
NOSS 3-4 (C) 4.3 20:14:24 10° NNW 20:21:09 45° NE 20:28:06 10° SE
Meteor 1-19 Rocket 4.5 20:18:44 10° NNW 20:24:24 76° W 20:29:56 10° S
Spot 2 Rocket 4.0 20:20:50 10° S 20:25:53 65° WSW 20:30:58 10° NNW
Cosmos 2297 Rocket 3.4 20:24:40 10° N 20:29:12 24° ENE 20:32:48 14° ESE
ATLAS 2A CENTAUR R/B 3.1 20:29:05 10° WSW 20:32:41 16° SW 20:34:36 10° S
Cosmos 1570 Rocket 4.0 20:27:29 10° SSW 20:32:48 82° ESE 20:38:05 10° NNE
Cosmos 1821 Rocket 4.1 20:30:34 10° S 20:36:41 82° W 20:42:48 10° N
Meteor 2-16 Rocket 4.4 20:30:43 10° S 20:36:47 80° E 20:42:52 10° N
Cosmos 1605 Rocket 4.1 20:33:25 10° S 20:39:38 59° E 20:45:48 10° NNE
CZ-4B DEB 3.2 20:38:55 10° S 20:42:08 63° W 20:45:24 10° NNW
OAO 2 Rocket 3.3 20:39:34 10° WSW 20:44:33 69° SSE 20:48:32 17° E
NOSS 7 (H) 4.3 20:50:22 10° SSW 20:53:43 81° WNW 20:57:00 10° NNE
Iridium 4 Rocket 3.8 20:49:29 10° NNE 20:54:13 40° E 20:56:49 21° SE
Cosmos 1975 3.0 20:51:54 10° S 20:55:52 52° E 20:59:52 10° NNE
DELTA 2 R/B (1) 4.1 20:50:57 10° WNW 20:56:25 54° N 21:00:24 18° E
Okean 2 3.8 20:54:44 10° NNW 20:58:52 63° W 21:02:57 10° S
EO 1 Delta rocket 4.3 20:57:48 10° N 21:02:30 71° W 21:07:55 10° SSW
Cosmos 1697 Rocket 3.0 20:59:21 10° S 21:04:39 43° ESE 21:09:58 10° NE
H-2A R/B 3.4 21:06:31 21° ENE 21:06:31 21° ENE 21:09:34 10° NNE
Cosmos 2278 4.3 21:01:27 10° SSW 21:07:02 60° WNW 21:12:40 10° NNE
Lacrosse 5 rocket 2.2 21:05:39 10° NNW 21:08:53 28° NE 21:09:24 27° ENE
ALOS 3.2 21:04:47 10° S 21:09:17 48° W 21:13:49 10° NNW
ERS-1 Rocket 3.1 21:07:45 28° SE 21:10:08 52° ENE 21:15:00 10° N
Cosmos 2123 Rocket 4.1 21:06:02 10° N 21:12:12 75° W 21:18:21 10° S
H-2A R/B 3.8 21:08:42 10° S 21:12:23 46° W 21:16:10 10° NNW
Cosmos 1626 Rocket 3.4 21:09:21 10° N 21:13:44 69° E 21:15:37 33° SSE
Cosmos 1455 Rocket 4.5 21:10:31 10° SSW 21:14:33 39° W 21:18:38 10° N
Meteor 1-12 Rocket 4.3 21:11:40 10° S 21:17:22 80° W 21:23:11 10° N
Cosmos 1898 Rocket 4.1 21:13:11 10° N 21:18:06 37° ENE 21:19:07 34° E
deb Chang Zheng 4 4.0 21:14:09 10° NNE 21:18:17 40° E 21:18:17 40° E
Cosmos 1461 2.6 21:16:23 10° NNW 21:20:25 84° ENE 21:21:13 55° SE
Cosmos 1602 Rocket 3.5 21:17:41 10° N 21:22:10 87° E 21:24:05 34° S
Chunghua 1 4.4 21:20:04 10° WSW 21:23:54 71° S 21:24:09 68° SE
Cosmos 1459 Rocket 4.0 21:21:24 28° SSE 21:24:21 51° E 21:30:12 10° NNE
SL-24 R/B - RUBIN 2 4.4 21:21:03 10° SSW 21:26:44 81° WNW 21:33:10 10° NNE
Cosmos 1980 Rocket 2.6 21:26:51 39° ESE 21:26:51 39° ESE 21:32:01 10° NE
Cosmos 1939 Rocket 2.8 21:27:38 60° ESE 21:28:03 66° ENE 21:32:11 10° N
Cosmos 468 Rocket 3.8 21:28:58 10° SSW 21:34:05 83° ESE 21:39:13 10° NNE
Lacrosse 5 3.2 21:34:36 10° NNW 21:38:51 26° NE 21:39:26 26° NE
Hubble Space Telescope 2.8 21:36:06 10° WSW 21:38:23 18° SSW 21:38:23 18° SSW
SPOT 5 3.2 21:41:22 49° ENE 21:41:23 49° ENE 21:46:08 10° N
Cosmos 1814 Rocket 3.9 21:37:27 13° SSW 21:42:15 83° ESE 21:47:36 10° NNE
Cosmos 2084 4.3 21:39:07 10° NNW 21:42:21 37° NNE 21:42:21 37° NNE
Cosmos 220 Rocket 4.0 21:42:11 10° NNW 21:46:23 70° WSW 21:46:33 69° SW
Tiangong 1 3.6 21:46:36 10° NW 21:48:23 18° N 21:48:23 18° N
MetOp-B 4.3 21:49:21 52° ENE 21:49:21 52° ENE 21:54:28 10° N
OTV 4 2.8 21:46:59 10° WNW 21:48:16 23° WNW 21:48:16 23° WNW
Cosmos 1802 Rocket 3.9 21:47:44 41° SSE 21:50:05 74° E 21:56:30 10° N
Delta 2 Rocket 4.0 21:45:52 10° W 21:51:15 58° SSW 21:51:17 58° SSW
Cosmos 1500 4.4 21:53:26 35° WSW 21:54:12 39° W 21:57:46 10° N
Cosmos 2227 Rocket 3.3 21:52:26 10° NW 21:57:40 40° WSW 22:00:12 26° SSW
RESURS DK-1 3.8 21:55:52 10° N 21:58:17 30° NNE 21:58:17 30° NNE
Cosmos 858 Rocket 4.4 21:58:04 10° NNW 22:03:21 89° WNW 22:03:21 89° WNW
CZ-3C R/B 3.7 21:42:56 10° W 22:07:25 32° SW 22:09:52 28° S
Cosmos 2016 Rocket 3.8 22:07:39 70° S 22:08:24 86° E 22:14:36 10° N
Cosmos 2298 Rocket 4.2 22:03:21 10° NNW 22:08:36 64° WSW 22:08:57 62° SW
Cosmos 2297 Rocket 3.1 22:08:04 10° NW 22:13:21 41° WSW 22:14:38 36° SW
Envisat 3.8 22:14:26 41° SW 22:15:14 44° W 22:20:05 10° NNW
H-2A R/B 3.8 22:19:52 20° NNE 22:19:52 20° NNE 22:21:45 10° NNE
Terra 4.1 22:23:36 15° NNE 22:23:36 15° NNE 22:24:42 10° NNE
Cosmos 1937 Rocket 3.9 22:19:22 10° NNW 22:23:51 61° NW 22:23:51 61° NW
ASTEX 1 4.0 22:21:48 10° N 22:25:57 54° NW 22:25:57 54° NW
Cosmos 2098 Rocket 4.1 22:26:49 84° S 22:27:05 90° E 22:33:25 10° N
OAO 2 Rocket 4.4 22:24:16 10° W 22:27:30 40° W 22:27:30 40° W
SPOT 1/Viking Rocket 4.4 22:37:52 46° NNW 22:37:52 46° NNW 22:41:32 10° NNW
Tsikada Rocket 4.3 22:35:11 10° N 22:40:26 61° N 22:40:26 61° N
H-2A R/B 4.3 22:43:39 20° WNW 22:43:39 20° WNW 22:45:39 10° NW
BREEZE-M DEB (TANK) 4.5 22:37:08 10° W 22:47:03 38° NNW 22:48:15 33° N
SL-16 R/B 4.3 22:57:20 18° NNE 22:57:20 18° NNE 22:58:43 10° NNE
Cosmos 1980 Rocket 4.1 23:08:26 19° W 23:10:51 25° WNW 23:15:31 10° N
Milstar 3 Cent rocket 4.1 23:00:56 10° W 23:14:46 49° SW 23:14:46 49° SW
Lacrosse 5 4.2 23:17:08 10° NW 23:18:37 19° WNW 23:18:37 19° WNW
USA 215 4.1 23:32:14 45° NNW 23:32:14 45° NNW 23:36:34 10° NW
Cosmos 2322 Rocket 4.4 23:45:09 21° NNW 23:45:09 21° NNW 23:47:15 10° N
Cosmos 2263 Rocket 4.3 23:38:05 10° NNW 23:39:56 21° NNW 23:39:56 21° NNW
